Location: Fernhill
(41.0167°S, 175.6333°E)
Time: 23:10:29
(UTC+00:00)

Okean O Rocket - Pass Details

Date: 08 November 2025
Orbit: 614 x 634 km, 98.0° (Epoch: 04 December)

Event Time Altitude Azimuth Distance (km) Brightness Sun altitude
Rises 11:06:15 0° 186° (S) 2,925 6.1 -30.9°
Reaches altitude 10° 11:09:10 10° 206° (SSW) 2,011 5.0 -31.0°
Maximum altitude 11:11:50 16° 244° (WSW) 1,634 4.1 -31.1°
Enters shadow 11:12:28 16° 255° (WSW) 1,656 4.0 -31.2°
